Tracking 30746 objects as of 20-Jun-2025
HD Live streaming from Space Station
objects crossing your sky now

COSMOS 1275 DEB

Track COSMOS 1275 DEB now!
10-day predictions


NORAD ID: 12766
Int'l Code: 1981-053DK
Perigee: 934.7 km
Apogee: 1,079.3 km
Inclination: 82.9 °
Period: 105.1 minutes
Semi major axis: 7377 km
RCS: 0.051 m2 (small)
Launch date: June 4, 1981
Source: Commonwealth of Independent States (former USSR) (CIS)
Launch site: PLESETSK MISSILE AND SPACE COMPLEX (PKMTR)

Note: This is SATELLITE DEBRIS
Your satellite tracking list
Your tracking list is empty




NASA's NSSDC Master Catalog

Two Line Element Set (TLE):
1 12766U 81053DK  25170.08835010  .00000723  00000-0  78170-3 0  9997
2 12766  82.9486  25.1304 0097976 205.3388 311.9030 13.69927250182128
Source of the keplerian elements: AFSPC